[[{"header":{"parameterUnit":"m.s-1","parameterCategory":1,"la1":30.2991,"la2":30.254,"lo1":-89.0895,"lo2":-89.0444,"dy":0.0017,"dx":0.0017,"nx":28,"ny":28,"refTime":"2025-11-15T09:00:00:Z","depth":0,"parameterNumber":2,"parameterNumberName":"U-component_of_WINDS"},"data":[0,0,0,0,0,0,0,0,0,0,0,0,0,0,0,0,0,0,0,0,0,0,0,0,0,0,0,0,0,0,0,0,0,0,0,0,0,0,0,0,0,0,0,0,0,0,0,0,0,0,0,0,0,0,0,0,0,0,2.7232,2.7234,0,2.7371,2.7372,2.7374,2.7388,2.7387,2.7385,2.7384,2.7528,2.7533,2.7538,0,0,0,0,0,0,0,0,0,0,0,0,0,2.6982,2.6986,2.7232,2.7234,2.7236,2.7371,2.7373,2.7374,2.7388,2.7387,2.7385,2.7383,2.7526,2.7532,2.7538,0,0,0,0,0,0,0,0,0,0,0,0,0,2.7102,2.6988,2.7232,2.7259,2.7263,2.737,2.7373,2.7375,2.7389,2.7387,2.7384,2.7382,2.7524,2.7531,2.7539,2.763,0,0,2.7563,2.7566,0,0,0,0,0,0,0,0,2.7096,2.7112,2.7253,2.7257,2.7262,2.736,2.7337,2.7461,2.7389,2.7341,2.7384,2.7381,2.7474,2.7485,2.7516,2.7637,2.7643,2.7563,2.7568,2.7571,2.7574,0,0,0,0,0,0,0,2.7087,2.7106,2.7287,2.7255,2.726,2.7265,2.7279,2.736,2.7418,2.7345,2.7346,2.7362,2.7476,2.7509,2.752,2.7645,2.7563,2.757,2.7575,2.7578,2.7847,2.785,0,0,0,0,0,0,2.7074,2.7099,2.7283,2.7291,2.7172,2.7271,2.7287,2.7331,2.7417,2.7428,2.7364,2.7363,2.7497,2.7511,2.7525,2.7637,2.7571,2.7579,2.7583,2.7845,2.7848,2.7851,0,0,0,0,0,0,2.7068,2.709,2.7277,2.7195,2.722,2.7278,2.7326,2.7334,2.7368,2.7431,2.7442,2.7387,2.7495,2.7514,2.7604,2.7642,2.7582,2.7589,2.7842,2.7846,2.7849,2.7861,0,0,0,0,0,0,2.7061,2.7088,2.7122,2.7196,2.7224,2.7353,2.7328,2.7339,2.7381,2.738,2.7456,2.7466,2.7495,2.7592,2.7611,2.7652,2.7595,2.7839,2.7844,2.7848,2.7858,2.7865,2.7871,0,0,0,0,0,2.7052,2.7121,2.7124,2.7146,2.7268,2.7355,2.7371,2.7402,2.7384,2.7419,2.746,2.7464,2.7635,2.7601,2.7623,2.7666,2.7836,2.7842,2.7848,2.7855,2.7864,2.7871,0,0,0,0,0,0,2.705,2.7131,2.7135,2.723,2.7286,2.7357,2.7403,2.7411,2.7473,2.747,2.7507,2.7524,2.7612,2.7648,2.7609,2.7759,2.7734,2.7744,2.7732,2.7741,2.7747,2.7736,2.7602,0,0,0,0,0,2.7061,2.7124,2.7191,2.7268,2.7296,2.7345,2.7384,2.7403,2.7462,2.7486,2.7534,2.7592,2.7659,2.7702,2.7767,2.7863,2.788,2.7904,2.7911,2.7916,2.7924,2.7978,2.799,2.7869,2.7869,2.7869,0,0,2.7083,2.7135,2.7173,2.7269,2.7315,2.738,2.7364,2.7434,2.7483,2.7497,2.7584,2.7621,2.7689,2.7782,2.7826,2.7815,2.7961,2.7923,2.7927,2.7932,2.7985,2.7996,2.8007,2.7873,2.7872,2.7872,0,0,2.7158,2.7203,2.7272,2.7318,2.7387,2.7419,2.7435,2.7507,2.7532,2.762,2.7632,2.7691,2.7805,2.7852,2.7892,2.7985,2.799,2.8005,2.804,2.8092,2.8102,2.811,2.8143,2.8155,2.8013,2.8013,2.8013,0,2.7177,2.7275,2.7307,2.7376,2.7418,2.7434,2.7504,2.7547,2.7634,2.7663,2.765,2.7794,2.784,2.7945,2.7968,2.7999,2.8019,2.7996,2.8098,2.8107,2.8115,2.8147,2.8159,2.8014,2.8014,2.8014,2.8014,0,2.7296,2.7364,2.7411,2.7494,2.7542,2.7611,2.7654,2.7699,2.7714,2.7748,2.7838,2.7894,2.7971,2.7997,2.8013,2.8105,2.8096,2.809,2.8065,2.8127,2.8158,2.817,2.8016,2.8016,2.8015,2.8015,0,0,2.7372,2.7472,2.7489,2.7526,2.7604,2.7657,2.7728,2.7802,2.784,2.79,2.796,2.8057,2.8051,2.8096,2.8117,2.8163,2.8233,2.8152,2.8154,2.8164,2.8338,2.8341,2.8355,2.8238,2.824,2.8242,2.8332,0,2.7455,2.758,2.7611,2.7718,2.7782,2.7798,2.7859,2.7914,2.7948,2.8007,2.8044,2.8112,2.81,2.8127,2.8173,2.8215,2.8268,2.8209,2.8295,2.8297,2.8276,2.8371,2.8375,2.8456,2.8344,2.8346,2.8347,0,2.7567,2.7629,2.7742,2.7812,2.784,2.7894,2.7965,2.8022,2.8084,2.8105,2.8155,2.8172,2.8247,2.822,2.8323,2.8282,2.832,2.8345,2.8349,2.8358,2.8325,2.8381,2.8483,2.8495,2.8367,2.8365,2.8364,0,2.7611,2.7723,2.7805,2.7837,2.792,2.7958,2.7994,2.8055,2.8098,2.816,2.8188,2.8259,2.8298,2.8352,2.8388,2.8365,2.8489,2.8465,2.8509,2.8508,2.8534,2.8532,2.8643,2.8559,2.8559,2.8559,2.8559,0,2.77,2.7768,2.7825,2.7876,2.7954,2.7989,2.8065,2.8102,2.8156,2.8215,2.8233,2.8288,2.8333,2.8394,2.8423,2.8504,2.8522,2.8541,2.8548,2.8539,2.8537,2.8564,2.8559,2.8562,2.8561,2.8561,2.856,0,2.7761,2.7802,2.7893,2.7964,2.7984,2.8038,2.8099,2.8149,2.8184,2.8257,2.8277,2.8331,2.8404,2.8446,2.8538,2.8557,2.8648,2.8652,2.8626,2.8629,2.8671,2.8666,2.8803,2.8822,2.8726,2.8727,2.8728,0,2.7815,2.7868,2.7945,2.7985,2.8022,2.8087,2.813,2.8168,2.8213,2.8288,2.8329,2.8403,2.8464,2.858,2.8628,2.8698,2.8704,2.8747,2.8715,2.8705,2.8704,2.87,2.8706,2.8752,2.8753,2.8754,2.8755,0,2.7905,2.7923,2.7985,2.8054,2.8106,2.8163,2.8219,2.8251,2.8298,2.8348,2.8422,2.8469,2.8563,2.8636,2.8711,2.8749,2.876,2.8765,2.8779,2.877,2.8752,2.8762,2.8641,2.8761,2.876,2.876,2.876,2.8759,2.7964,2.8012,2.8073,2.8142,2.8188,2.8241,2.8291,2.8332,2.8394,2.8473,2.8492,2.857,2.8632,2.8733,2.8773,2.8836,2.8828,2.8848,2.8854,2.8858,2.8859,2.8743,2.885,2.8849,2.8849,2.8849,2.8849,0,2.8054,2.8095,2.8158,2.8236,2.829,2.8295,2.8358,2.8403,2.8472,2.8528,2.8588,2.8673,2.8745,2.8798,2.8872,2.8911,2.8918,2.8929,2.8926,2.8935,2.8862,2.8842,2.8922,2.8922,2.8922,2.8922,2.8922,2.8922,2.8108,2.8189,2.8214,2.8319,2.836,2.8436,2.8471,2.852,2.8565,2.866,2.8719,2.8753,2.8809,2.8886,2.8952,2.8966,2.8992,2.9002,2.9017,2.8948,2.894,2.8932,2.8914,2.9008,2.9008,2.9085,2.9086,2.9086]},{"header":{"parameterUnit":"m.s-1","parameterCategory":1,"la1":30.2991,"la2":30.254,"lo1":-89.0895,"lo2":-89.0444,"dy":0.0017,"dx":0.0017,"nx":28,"ny":28,"refTime":"2025-11-15T09:00:00:Z","depth":0,"parameterNumber":3,"parameterNumberName":"V-component_of_WINDS"},"data":[0,0,0,0,0,0,0,0,0,0,0,0,0,0,0,0,0,0,0,0,0,0,0,0,0,0,0,0,0,0,0,0,0,0,0,0,0,0,0,0,0,0,0,0,0,0,0,0,0,0,0,0,0,0,0,0,0,0,1.1163,1.1163,0,1.112,1.112,1.1119,1.108,1.1079,1.1079,1.1078,1.1035,1.1034,1.1033,0,0,0,0,0,0,0,0,0,0,0,0,0,1.1211,1.1211,1.1163,1.1163,1.1162,1.112,1.112,1.1119,1.108,1.1079,1.1079,1.1078,1.1035,1.1034,1.1033,0,0,0,0,0,0,0,0,0,0,0,0,0,1.1182,1.121,1.1163,1.1137,1.1135,1.112,1.112,1.1119,1.108,1.1079,1.1079,1.1078,1.1035,1.1034,1.1033,1.1041,0,0,1.103,1.103,0,0,0,0,0,0,0,0,1.1183,1.118,1.1142,1.1139,1.1136,1.1105,1.1121,1.1093,1.108,1.1101,1.1078,1.1078,1.1059,1.1056,1.1049,1.1039,1.1037,1.103,1.1029,1.1029,1.1029,0,0,0,0,0,0,0,1.1185,1.1182,1.1146,1.1141,1.1138,1.1128,1.1123,1.1115,1.1084,1.1099,1.1096,1.1091,1.1057,1.105,1.1048,1.1037,1.103,1.1029,1.1028,1.1028,1.103,1.1031,0,0,0,0,0,0,1.1191,1.1184,1.1147,1.1145,1.1158,1.1128,1.1122,1.1115,1.1084,1.1079,1.1092,1.109,1.1052,1.1049,1.1046,1.1053,1.1029,1.1028,1.1027,1.103,1.103,1.1031,0,0,0,0,0,0,1.1193,1.1189,1.1149,1.1163,1.1158,1.1128,1.112,1.1115,1.1108,1.1079,1.1073,1.1091,1.1052,1.1048,1.1043,1.1051,1.1027,1.1026,1.1029,1.103,1.1031,1.1067,0,0,0,0,0,0,1.1194,1.1189,1.1192,1.1164,1.1157,1.1146,1.1121,1.1115,1.1106,1.1103,1.1076,1.1071,1.1051,1.1044,1.1041,1.1049,1.1026,1.1028,1.1029,1.103,1.1065,1.1069,1.1073,0,0,0,0,0,1.1196,1.1204,1.1192,1.1188,1.116,1.1147,1.1143,1.1119,1.1107,1.111,1.1091,1.1072,1.1051,1.1044,1.1041,1.1048,1.1027,1.1029,1.103,1.1063,1.1069,1.1073,0,0,0,0,0,0,1.1234,1.12,1.1186,1.1186,1.117,1.114,1.1143,1.1126,1.1113,1.111,1.1081,1.1075,1.1073,1.106,1.1054,1.1054,1.1036,1.1037,1.1063,1.1067,1.1071,1.1075,1.1025,0,0,0,0,0,1.1243,1.1235,1.1206,1.1208,1.12,1.1173,1.1167,1.1149,1.1132,1.1125,1.1105,1.1089,1.1078,1.1072,1.1061,1.1063,1.1057,1.1066,1.107,1.1074,1.1075,1.1075,1.1079,1.1036,1.1036,1.1036,0,0,1.126,1.124,1.1237,1.1215,1.12,1.1193,1.1168,1.1161,1.1156,1.1124,1.1118,1.1103,1.1083,1.1081,1.108,1.107,1.1085,1.1076,1.1079,1.1078,1.1077,1.1081,1.1085,1.1037,1.1037,1.1037,0,0,1.1288,1.1272,1.1272,1.1258,1.1236,1.1218,1.1218,1.1191,1.118,1.1174,1.1149,1.1142,1.1125,1.1111,1.1102,1.1124,1.1107,1.1121,1.1142,1.1143,1.1146,1.1149,1.1157,1.116,1.1123,1.1123,1.1123,0,1.1312,1.13,1.1274,1.1269,1.126,1.1231,1.123,1.1218,1.1194,1.1188,1.1178,1.1155,1.1139,1.1134,1.1139,1.1133,1.1132,1.1124,1.1147,1.115,1.1152,1.116,1.1163,1.1125,1.1124,1.1124,1.1124,0,1.1331,1.1323,1.1326,1.1303,1.1294,1.1292,1.1265,1.1259,1.1243,1.1226,1.1219,1.1199,1.1183,1.118,1.1165,1.1173,1.1168,1.1153,1.1135,1.1159,1.1165,1.1168,1.1127,1.1127,1.1126,1.1126,0,0,1.1382,1.1345,1.1346,1.1335,1.1309,1.1303,1.1299,1.1283,1.1278,1.1262,1.1258,1.1244,1.123,1.1219,1.1201,1.1202,1.122,1.1186,1.1186,1.1194,1.1229,1.124,1.1244,1.1208,1.1209,1.1209,1.123,0,1.1406,1.1397,1.1373,1.1372,1.1364,1.1336,1.1332,1.1316,1.1299,1.1291,1.1273,1.1263,1.1245,1.1238,1.1237,1.1218,1.1227,1.1217,1.1204,1.1204,1.1211,1.1247,1.1259,1.128,1.1233,1.1233,1.1233,0,1.1432,1.1418,1.1416,1.1389,1.1385,1.1383,1.1366,1.1358,1.1339,1.1327,1.1315,1.1295,1.1289,1.1272,1.1264,1.1257,1.125,1.124,1.1241,1.1239,1.1221,1.1247,1.1286,1.129,1.1237,1.1237,1.1236,0,1.147,1.145,1.1446,1.1438,1.1407,1.1406,1.1393,1.1373,1.1365,1.135,1.1344,1.133,1.1321,1.131,1.1287,1.1277,1.1281,1.1262,1.1271,1.1272,1.1274,1.1274,1.1313,1.1269,1.1269,1.1269,1.1269,0,1.1499,1.1499,1.1463,1.146,1.1459,1.1432,1.1431,1.1416,1.1398,1.1392,1.1366,1.1361,1.133,1.1322,1.1303,1.1299,1.1296,1.1286,1.1281,1.1288,1.129,1.1284,1.1282,1.127,1.127,1.127,1.1269,0,1.1541,1.1517,1.1511,1.1482,1.1475,1.1475,1.145,1.1447,1.1429,1.1422,1.1418,1.139,1.1379,1.1354,1.1336,1.1324,1.1324,1.1315,1.133,1.1327,1.1338,1.1337,1.1375,1.1379,1.1333,1.1333,1.1333,0,1.1561,1.156,1.1532,1.1526,1.1514,1.1505,1.1496,1.1469,1.1461,1.1439,1.1438,1.1424,1.1412,1.1395,1.1373,1.1359,1.1349,1.1364,1.1347,1.1354,1.135,1.135,1.135,1.1367,1.1368,1.1369,1.1369,0,1.16,1.1588,1.1577,1.1561,1.1551,1.1538,1.1523,1.152,1.1489,1.1481,1.1469,1.146,1.1441,1.1428,1.141,1.1397,1.1378,1.1374,1.1376,1.1383,1.1392,1.1388,1.1341,1.1374,1.1373,1.1373,1.1373,1.1372,1.1632,1.1629,1.1609,1.1597,1.1583,1.1569,1.1564,1.1546,1.1535,1.1518,1.1502,1.1491,1.1471,1.1446,1.1434,1.1425,1.1416,1.1418,1.1418,1.1419,1.1422,1.1393,1.1422,1.1421,1.1421,1.1421,1.1421,0,1.1669,1.1654,1.1643,1.1623,1.1614,1.1596,1.1579,1.1572,1.1563,1.1546,1.1534,1.152,1.1507,1.1484,1.1469,1.1466,1.1457,1.1463,1.1463,1.1461,1.1431,1.1432,1.1471,1.1471,1.1471,1.1471,1.1471,1.1471,1.1687,1.1682,1.1668,1.1656,1.1641,1.163,1.1621,1.1609,1.1595,1.158,1.1569,1.1554,1.1535,1.1518,1.1505,1.1499,1.1494,1.1503,1.1494,1.1467,1.1463,1.1458,1.1458,1.1503,1.1503,1.1524,1.1524,1.1524]}]]